Desroches Airport

Jump to: basic info | weather | runways | comments

Related pages: nearby airports | nearby navaids | notams | map

Basic information (top)

Codes: DES FSDR
Location: lon -5.696700, lat 53.655800, elev 10 ft / 3 m msl
Status: small_airport
Scheduled airline service: no
Links: Wikipedia Mobile

Weather (top)

Current conditions for Seychelles International Airport 127nm (236km) ENE (rec'd 2015/04/28 15:00Z):

FSIA 281500Z 26002KT 9999 FEW016CB SCT017 29/24 Q1010 TEMPO -SHRA BKN016

Airport forecast for Seychelles International Airport 127nm (236km) ENE (rec'd 2015/04/28 12:00Z):

TAF FSIA 280950Z 2812/2912 05005KT 9999 SCT018 
      TEMPO 2818/2906 5000 SHRA FEW012 FEW014CB BKN015

Runways (top)

12/30: 4,531 x 33 ft (1,381 x 10 m) — paved — not lighted

Latest comments (top)

No comments yet for Desroches Airport

More... (top)

See also NOTAMs and nearby airports and navaids, or visit the Desroches Airport page at the main OurAirports website..